timestamp,waterbody_station,lease,latitude,longitude,deployment_start_date,deployment_end_date,sensor,depth,mooring,Temperature_degrees Celsius,Salinity_practical salinity units,Dissolved Oxygen_percent saturation
2022-08-13T00:03:00,St. Mary's Bay-Centreville,,44.536239,-66.00172,2022-06-07,2022-08-22,aquaMeasure-670375,3.5,float,17.51,,109.3
2022-08-13T00:13:00,St. Mary's Bay-Centreville,,44.536239,-66.00172,2022-06-07,2022-08-22,aquaMeasure-670375,3.5,float,17.55,,111.0
2022-08-13T00:23:00,St. Mary's Bay-Centreville,,44.536239,-66.00172,2022-06-07,2022-08-22,aquaMeasure-670375,3.5,float,17.68,,112.5
2022-08-13T00:33:00,St. Mary's Bay-Centreville,,44.536239,-66.00172,2022-06-07,2022-08-22,aquaMeasure-670375,3.5,float,17.57,,110.8
2022-08-13T00:43:00,St. Mary's Bay-Centreville,,44.536239,-66.00172,2022-06-07,2022-08-22,aquaMeasure-670375,3.5,float,17.44,,109.2
2022-08-13T00:53:00,St. Mary's Bay-Centreville,,44.536239,-66.00172,2022-06-07,2022-08-22,aquaMeasure-670375,3.5,float,17.46,,111.3
2022-08-13T01:03:00,St. Mary's Bay-Centreville,,44.536239,-66.00172,2022-06-07,2022-08-22,aquaMeasure-670375,3.5,float,17.53,,111.5
2022-08-13T01:13:00,St. Mary's Bay-Centreville,,44.536239,-66.00172,2022-06-07,2022-08-22,aquaMeasure-670375,3.5,float,17.55,,110.7
2022-08-13T01:23:00,St. Mary's Bay-Centreville,,44.536239,-66.00172,2022-06-07,2022-08-22,aquaMeasure-670375,3.5,float,17.35,,107.6
2022-08-13T01:33:00,St. Mary's Bay-Centreville,,44.536239,-66.00172,2022-06-07,2022-08-22,aquaMeasure-670375,3.5,float,17.29,,108.1
2022-08-13T01:43:00,St. Mary's Bay-Centreville,,44.536239,-66.00172,2022-06-07,2022-08-22,aquaMeasure-670375,3.5,float,17.33,,108.0
2022-08-13T01:53:00,St. Mary's Bay-Centreville,,44.536239,-66.00172,2022-06-07,2022-08-22,aquaMeasure-670375,3.5,float,17.33,,107.6
2022-08-13T02:03:00,St. Mary's Bay-Centreville,,44.536239,-66.00172,2022-06-07,2022-08-22,aquaMeasure-670375,3.5,float,17.35,,107.1
2022-08-13T02:13:00,St. Mary's Bay-Centreville,,44.536239,-66.00172,2022-06-07,2022-08-22,aquaMeasure-670375,3.5,float,17.35,,106.6
2022-08-13T02:23:00,St. Mary's Bay-Centreville,,44.536239,-66.00172,2022-06-07,2022-08-22,aquaMeasure-670375,3.5,float,17.42,,105.9
2022-08-13T02:33:00,St. Mary's Bay-Centreville,,44.536239,-66.00172,2022-06-07,2022-08-22,aquaMeasure-670375,3.5,float,17.42,,107.2
2022-08-13T02:43:00,St. Mary's Bay-Centreville,,44.536239,-66.00172,2022-06-07,2022-08-22,aquaMeasure-670375,3.5,float,17.44,,108.6
2022-08-13T02:53:00,St. Mary's Bay-Centreville,,44.536239,-66.00172,2022-06-07,2022-08-22,aquaMeasure-670375,3.5,float,17.42,,107.1
2022-08-13T03:03:00,St. Mary's Bay-Centreville,,44.536239,-66.00172,2022-06-07,2022-08-22,aquaMeasure-670375,3.5,float,17.33,,105.7
2022-08-13T03:13:00,St. Mary's Bay-Centreville,,44.536239,-66.00172,2022-06-07,2022-08-22,aquaMeasure-670375,3.5,float,17.31,,106.1
2022-08-13T03:23:00,St. Mary's Bay-Centreville,,44.536239,-66.00172,2022-06-07,2022-08-22,aquaMeasure-670375,3.5,float,17.35,,104.7
2022-08-13T03:33:00,St. Mary's Bay-Centreville,,44.536239,-66.00172,2022-06-07,2022-08-22,aquaMeasure-670375,3.5,float,17.55,,107.4
2022-08-13T03:43:00,St. Mary's Bay-Centreville,,44.536239,-66.00172,2022-06-07,2022-08-22,aquaMeasure-670375,3.5,float,17.59,,109.1
2022-08-13T03:53:00,St. Mary's Bay-Centreville,,44.536239,-66.00172,2022-06-07,2022-08-22,aquaMeasure-670375,3.5,float,17.73,,109.1
2022-08-13T04:03:00,St. Mary's Bay-Centreville,,44.536239,-66.00172,2022-06-07,2022-08-22,aquaMeasure-670375,3.5,float,17.79,,109.3
2022-08-13T04:13:00,St. Mary's Bay-Centreville,,44.536239,-66.00172,2022-06-07,2022-08-22,aquaMeasure-670375,3.5,float,17.77,,108.8
2022-08-13T04:23:00,St. Mary's Bay-Centreville,,44.536239,-66.00172,2022-06-07,2022-08-22,aquaMeasure-670375,3.5,float,17.73,,108.8
2022-08-13T04:33:00,St. Mary's Bay-Centreville,,44.536239,-66.00172,2022-06-07,2022-08-22,aquaMeasure-670375,3.5,float,17.7,,109.1
2022-08-13T04:43:00,St. Mary's Bay-Centreville,,44.536239,-66.00172,2022-06-07,2022-08-22,aquaMeasure-670375,3.5,float,17.59,,107.6
2022-08-13T04:53:00,St. Mary's Bay-Centreville,,44.536239,-66.00172,2022-06-07,2022-08-22,aquaMeasure-670375,3.5,float,17.51,,107.2
2022-08-13T05:03:00,St. Mary's Bay-Centreville,,44.536239,-66.00172,2022-06-07,2022-08-22,aquaMeasure-670375,3.5,float,17.51,,107.5
2022-08-13T05:13:00,St. Mary's Bay-Centreville,,44.536239,-66.00172,2022-06-07,2022-08-22,aquaMeasure-670375,3.5,float,17.53,,107.7
2022-08-13T05:22:00,St. Mary's Bay-Centreville,,44.536239,-66.00172,2022-06-07,2022-08-22,aquaMeasure-670375,3.5,float,17.55,,107.4
2022-08-13T05:32:00,St. Mary's Bay-Centreville,,44.536239,-66.00172,2022-06-07,2022-08-22,aquaMeasure-670375,3.5,float,17.68,,108.2
2022-08-13T05:42:00,St. Mary's Bay-Centreville,,44.536239,-66.00172,2022-06-07,2022-08-22,aquaMeasure-670375,3.5,float,18.01,,110.5
2022-08-13T05:52:00,St. Mary's Bay-Centreville,,44.536239,-66.00172,2022-06-07,2022-08-22,aquaMeasure-670375,3.5,float,18.19,,112.3
2022-08-13T06:02:00,St. Mary's Bay-Centreville,,44.536239,-66.00172,2022-06-07,2022-08-22,aquaMeasure-670375,3.5,float,18.28,,112.7
2022-08-13T06:12:00,St. Mary's Bay-Centreville,,44.536239,-66.00172,2022-06-07,2022-08-22,aquaMeasure-670375,3.5,float,18.3,,112.2
2022-08-13T06:22:00,St. Mary's Bay-Centreville,,44.536239,-66.00172,2022-06-07,2022-08-22,aquaMeasure-670375,3.5,float,18.44,,113.9
2022-08-13T06:32:00,St. Mary's Bay-Centreville,,44.536239,-66.00172,2022-06-07,2022-08-22,aquaMeasure-670375,3.5,float,18.59,,116.1
2022-08-13T06:42:00,St. Mary's Bay-Centreville,,44.536239,-66.00172,2022-06-07,2022-08-22,aquaMeasure-670375,3.5,float,18.7,,114.8
2022-08-13T06:52:00,St. Mary's Bay-Centreville,,44.536239,-66.00172,2022-06-07,2022-08-22,aquaMeasure-670375,3.5,float,18.75,,115.0
2022-08-13T07:02:00,St. Mary's Bay-Centreville,,44.536239,-66.00172,2022-06-07,2022-08-22,aquaMeasure-670375,3.5,float,18.77,,114.1
2022-08-13T07:12:00,St. Mary's Bay-Centreville,,44.536239,-66.00172,2022-06-07,2022-08-22,aquaMeasure-670375,3.5,float,18.75,,113.4
2022-08-13T07:22:00,St. Mary's Bay-Centreville,,44.536239,-66.00172,2022-06-07,2022-08-22,aquaMeasure-670375,3.5,float,18.73,,113.2
2022-08-13T07:32:00,St. Mary's Bay-Centreville,,44.536239,-66.00172,2022-06-07,2022-08-22,aquaMeasure-670375,3.5,float,18.7,,111.5
2022-08-13T07:42:00,St. Mary's Bay-Centreville,,44.536239,-66.00172,2022-06-07,2022-08-22,aquaMeasure-670375,3.5,float,18.7,,113.2
2022-08-13T07:52:00,St. Mary's Bay-Centreville,,44.536239,-66.00172,2022-06-07,2022-08-22,aquaMeasure-670375,3.5,float,18.7,,111.9
2022-08-13T08:02:00,St. Mary's Bay-Centreville,,44.536239,-66.00172,2022-06-07,2022-08-22,aquaMeasure-670375,3.5,float,18.7,,112.5
2022-08-13T08:12:00,St. Mary's Bay-Centreville,,44.536239,-66.00172,2022-06-07,2022-08-22,aquaMeasure-670375,3.5,float,18.68,,112.0
2022-08-13T08:22:00,St. Mary's Bay-Centreville,,44.536239,-66.00172,2022-06-07,2022-08-22,aquaMeasure-670375,3.5,float,18.68,,111.2
2022-08-13T08:32:00,St. Mary's Bay-Centreville,,44.536239,-66.00172,2022-06-07,2022-08-22,aquaMeasure-670375,3.5,float,18.64,,109.3
2022-08-13T08:42:00,St. Mary's Bay-Centreville,,44.536239,-66.00172,2022-06-07,2022-08-22,aquaMeasure-670375,3.5,float,18.61,,105.6
2022-08-13T08:52:00,St. Mary's Bay-Centreville,,44.536239,-66.00172,2022-06-07,2022-08-22,aquaMeasure-670375,3.5,float,18.61,,103.9
2022-08-13T09:02:00,St. Mary's Bay-Centreville,,44.536239,-66.00172,2022-06-07,2022-08-22,aquaMeasure-670375,3.5,float,18.55,,103.9
2022-08-13T09:12:00,St. Mary's Bay-Centreville,,44.536239,-66.00172,2022-06-07,2022-08-22,aquaMeasure-670375,3.5,float,18.53,,107.3
2022-08-13T09:22:00,St. Mary's Bay-Centreville,,44.536239,-66.00172,2022-06-07,2022-08-22,aquaMeasure-670375,3.5,float,18.48,,107.3
2022-08-13T09:32:00,St. Mary's Bay-Centreville,,44.536239,-66.00172,2022-06-07,2022-08-22,aquaMeasure-670375,3.5,float,18.5,,109.4
2022-08-13T09:42:00,St. Mary's Bay-Centreville,,44.536239,-66.00172,2022-06-07,2022-08-22,aquaMeasure-670375,3.5,float,18.48,,108.6
2022-08-13T09:52:00,St. Mary's Bay-Centreville,,44.536239,-66.00172,2022-06-07,2022-08-22,aquaMeasure-670375,3.5,float,18.41,,110.1
2022-08-13T10:02:00,St. Mary's Bay-Centreville,,44.536239,-66.00172,2022-06-07,2022-08-22,aquaMeasure-670375,3.5,float,18.32,,109.5
2022-08-13T10:12:00,St. Mary's Bay-Centreville,,44.536239,-66.00172,2022-06-07,2022-08-22,aquaMeasure-670375,3.5,float,18.04,,109.9
2022-08-13T10:22:00,St. Mary's Bay-Centreville,,44.536239,-66.00172,2022-06-07,2022-08-22,aquaMeasure-670375,3.5,float,17.99,,110.1
2022-08-13T10:32:00,St. Mary's Bay-Centreville,,44.536239,-66.00172,2022-06-07,2022-08-22,aquaMeasure-670375,3.5,float,17.7,,109.5
2022-08-13T10:42:00,St. Mary's Bay-Centreville,,44.536239,-66.00172,2022-06-07,2022-08-22,aquaMeasure-670375,3.5,float,17.68,,110.1
2022-08-13T10:52:00,St. Mary's Bay-Centreville,,44.536239,-66.00172,2022-06-07,2022-08-22,aquaMeasure-670375,3.5,float,17.75,,110.0
2022-08-13T11:02:00,St. Mary's Bay-Centreville,,44.536239,-66.00172,2022-06-07,2022-08-22,aquaMeasure-670375,3.5,float,17.77,,109.5
2022-08-13T11:12:00,St. Mary's Bay-Centreville,,44.536239,-66.00172,2022-06-07,2022-08-22,aquaMeasure-670375,3.5,float,17.79,,109.3
2022-08-13T11:22:00,St. Mary's Bay-Centreville,,44.536239,-66.00172,2022-06-07,2022-08-22,aquaMeasure-670375,3.5,float,17.79,,107.9
2022-08-13T11:32:00,St. Mary's Bay-Centreville,,44.536239,-66.00172,2022-06-07,2022-08-22,aquaMeasure-670375,3.5,float,17.81,,108.4
2022-08-13T11:42:00,St. Mary's Bay-Centreville,,44.536239,-66.00172,2022-06-07,2022-08-22,aquaMeasure-670375,3.5,float,17.79,,108.7
2022-08-13T11:52:00,St. Mary's Bay-Centreville,,44.536239,-66.00172,2022-06-07,2022-08-22,aquaMeasure-670375,3.5,float,17.62,,109.6
2022-08-13T12:02:00,St. Mary's Bay-Centreville,,44.536239,-66.00172,2022-06-07,2022-08-22,aquaMeasure-670375,3.5,float,17.62,,112.1
2022-08-13T12:12:00,St. Mary's Bay-Centreville,,44.536239,-66.00172,2022-06-07,2022-08-22,aquaMeasure-670375,3.5,float,17.73,,111.1
2022-08-13T12:22:00,St. Mary's Bay-Centreville,,44.536239,-66.00172,2022-06-07,2022-08-22,aquaMeasure-670375,3.5,float,17.66,,109.1
2022-08-13T12:32:00,St. Mary's Bay-Centreville,,44.536239,-66.00172,2022-06-07,2022-08-22,aquaMeasure-670375,3.5,float,17.59,,110.3
2022-08-13T12:42:00,St. Mary's Bay-Centreville,,44.536239,-66.00172,2022-06-07,2022-08-22,aquaMeasure-670375,3.5,float,17.55,,108.0
2022-08-13T12:52:00,St. Mary's Bay-Centreville,,44.536239,-66.00172,2022-06-07,2022-08-22,aquaMeasure-670375,3.5,float,17.44,,108.3
2022-08-13T13:02:00,St. Mary's Bay-Centreville,,44.536239,-66.00172,2022-06-07,2022-08-22,aquaMeasure-670375,3.5,float,17.53,,110.8
2022-08-13T13:12:00,St. Mary's Bay-Centreville,,44.536239,-66.00172,2022-06-07,2022-08-22,aquaMeasure-670375,3.5,float,17.48,,111.8
2022-08-13T13:22:00,St. Mary's Bay-Centreville,,44.536239,-66.00172,2022-06-07,2022-08-22,aquaMeasure-670375,3.5,float,17.37,,110.0
2022-08-13T13:32:00,St. Mary's Bay-Centreville,,44.536239,-66.00172,2022-06-07,2022-08-22,aquaMeasure-670375,3.5,float,17.37,,113.3
2022-08-13T13:42:00,St. Mary's Bay-Centreville,,44.536239,-66.00172,2022-06-07,2022-08-22,aquaMeasure-670375,3.5,float,17.37,,114.0
2022-08-13T13:52:00,St. Mary's Bay-Centreville,,44.536239,-66.00172,2022-06-07,2022-08-22,aquaMeasure-670375,3.5,float,17.35,,114.2
2022-08-13T14:02:00,St. Mary's Bay-Centreville,,44.536239,-66.00172,2022-06-07,2022-08-22,aquaMeasure-670375,3.5,float,17.29,,114.2
2022-08-13T14:12:00,St. Mary's Bay-Centreville,,44.536239,-66.00172,2022-06-07,2022-08-22,aquaMeasure-670375,3.5,float,17.31,,113.0
2022-08-13T14:22:00,St. Mary's Bay-Centreville,,44.536239,-66.00172,2022-06-07,2022-08-22,aquaMeasure-670375,3.5,float,17.22,,110.6
2022-08-13T14:32:00,St. Mary's Bay-Centreville,,44.536239,-66.00172,2022-06-07,2022-08-22,aquaMeasure-670375,3.5,float,17.4,,112.7
2022-08-13T14:42:00,St. Mary's Bay-Centreville,,44.536239,-66.00172,2022-06-07,2022-08-22,aquaMeasure-670375,3.5,float,17.35,,114.7
2022-08-13T14:52:00,St. Mary's Bay-Centreville,,44.536239,-66.00172,2022-06-07,2022-08-22,aquaMeasure-670375,3.5,float,17.31,,116.6
2022-08-13T15:02:00,St. Mary's Bay-Centreville,,44.536239,-66.00172,2022-06-07,2022-08-22,aquaMeasure-670375,3.5,float,17.26,,115.4
2022-08-13T15:12:00,St. Mary's Bay-Centreville,,44.536239,-66.00172,2022-06-07,2022-08-22,aquaMeasure-670375,3.5,float,17.31,,110.7
2022-08-13T15:22:00,St. Mary's Bay-Centreville,,44.536239,-66.00172,2022-06-07,2022-08-22,aquaMeasure-670375,3.5,float,17.18,,110.5
2022-08-13T15:32:00,St. Mary's Bay-Centreville,,44.536239,-66.00172,2022-06-07,2022-08-22,aquaMeasure-670375,3.5,float,17.24,,111.9
2022-08-13T15:42:00,St. Mary's Bay-Centreville,,44.536239,-66.00172,2022-06-07,2022-08-22,aquaMeasure-670375,3.5,float,17.44,,112.9
2022-08-13T15:52:00,St. Mary's Bay-Centreville,,44.536239,-66.00172,2022-06-07,2022-08-22,aquaMeasure-670375,3.5,float,17.64,,115.0
2022-08-13T16:02:00,St. Mary's Bay-Centreville,,44.536239,-66.00172,2022-06-07,2022-08-22,aquaMeasure-670375,3.5,float,17.64,,113.7
2022-08-13T16:12:00,St. Mary's Bay-Centreville,,44.536239,-66.00172,2022-06-07,2022-08-22,aquaMeasure-670375,3.5,float,17.68,,114.2
2022-08-13T16:22:00,St. Mary's Bay-Centreville,,44.536239,-66.00172,2022-06-07,2022-08-22,aquaMeasure-670375,3.5,float,17.64,,114.0
2022-08-13T16:32:00,St. Mary's Bay-Centreville,,44.536239,-66.00172,2022-06-07,2022-08-22,aquaMeasure-670375,3.5,float,17.75,,114.7
2022-08-13T16:42:00,St. Mary's Bay-Centreville,,44.536239,-66.00172,2022-06-07,2022-08-22,aquaMeasure-670375,3.5,float,17.75,,113.7
2022-08-13T16:52:00,St. Mary's Bay-Centreville,,44.536239,-66.00172,2022-06-07,2022-08-22,aquaMeasure-670375,3.5,float,17.73,,114.4
2022-08-13T17:02:00,St. Mary's Bay-Centreville,,44.536239,-66.00172,2022-06-07,2022-08-22,aquaMeasure-670375,3.5,float,17.68,,115.2
2022-08-13T17:12:00,St. Mary's Bay-Centreville,,44.536239,-66.00172,2022-06-07,2022-08-22,aquaMeasure-670375,3.5,float,17.68,,114.7
2022-08-13T17:22:00,St. Mary's Bay-Centreville,,44.536239,-66.00172,2022-06-07,2022-08-22,aquaMeasure-670375,3.5,float,17.57,,113.2
2022-08-13T17:32:00,St. Mary's Bay-Centreville,,44.536239,-66.00172,2022-06-07,2022-08-22,aquaMeasure-670375,3.5,float,17.48,,111.8
2022-08-13T17:42:00,St. Mary's Bay-Centreville,,44.536239,-66.00172,2022-06-07,2022-08-22,aquaMeasure-670375,3.5,float,17.42,,111.5
2022-08-13T17:52:00,St. Mary's Bay-Centreville,,44.536239,-66.00172,2022-06-07,2022-08-22,aquaMeasure-670375,3.5,float,17.64,,113.8
2022-08-13T18:02:00,St. Mary's Bay-Centreville,,44.536239,-66.00172,2022-06-07,2022-08-22,aquaMeasure-670375,3.5,float,17.99,,114.9
2022-08-13T18:12:00,St. Mary's Bay-Centreville,,44.536239,-66.00172,2022-06-07,2022-08-22,aquaMeasure-670375,3.5,float,18.12,,116.6
2022-08-13T18:22:00,St. Mary's Bay-Centreville,,44.536239,-66.00172,2022-06-07,2022-08-22,aquaMeasure-670375,3.5,float,18.41,,118.3
2022-08-13T18:32:00,St. Mary's Bay-Centreville,,44.536239,-66.00172,2022-06-07,2022-08-22,aquaMeasure-670375,3.5,float,18.5,,118.1
2022-08-13T18:42:00,St. Mary's Bay-Centreville,,44.536239,-66.00172,2022-06-07,2022-08-22,aquaMeasure-670375,3.5,float,18.57,,118.4
2022-08-13T18:52:00,St. Mary's Bay-Centreville,,44.536239,-66.00172,2022-06-07,2022-08-22,aquaMeasure-670375,3.5,float,18.66,,118.9
2022-08-13T19:02:00,St. Mary's Bay-Centreville,,44.536239,-66.00172,2022-06-07,2022-08-22,aquaMeasure-670375,3.5,float,18.84,,120.6
2022-08-13T19:12:00,St. Mary's Bay-Centreville,,44.536239,-66.00172,2022-06-07,2022-08-22,aquaMeasure-670375,3.5,float,18.91,,120.6
2022-08-13T19:22:00,St. Mary's Bay-Centreville,,44.536239,-66.00172,2022-06-07,2022-08-22,aquaMeasure-670375,3.5,float,18.97,,120.0
2022-08-13T19:32:00,St. Mary's Bay-Centreville,,44.536239,-66.00172,2022-06-07,2022-08-22,aquaMeasure-670375,3.5,float,19.04,,119.8
2022-08-13T19:42:00,St. Mary's Bay-Centreville,,44.536239,-66.00172,2022-06-07,2022-08-22,aquaMeasure-670375,3.5,float,19.02,,119.0
2022-08-13T19:52:00,St. Mary's Bay-Centreville,,44.536239,-66.00172,2022-06-07,2022-08-22,aquaMeasure-670375,3.5,float,19.13,,118.2
2022-08-13T20:02:00,St. Mary's Bay-Centreville,,44.536239,-66.00172,2022-06-07,2022-08-22,aquaMeasure-670375,3.5,float,19.15,,117.7
2022-08-13T20:12:00,St. Mary's Bay-Centreville,,44.536239,-66.00172,2022-06-07,2022-08-22,aquaMeasure-670375,3.5,float,19.13,,118.3
2022-08-13T20:22:00,St. Mary's Bay-Centreville,,44.536239,-66.00172,2022-06-07,2022-08-22,aquaMeasure-670375,3.5,float,19.13,,118.6
2022-08-13T20:32:00,St. Mary's Bay-Centreville,,44.536239,-66.00172,2022-06-07,2022-08-22,aquaMeasure-670375,3.5,float,19.09,,119.1
2022-08-13T20:42:00,St. Mary's Bay-Centreville,,44.536239,-66.00172,2022-06-07,2022-08-22,aquaMeasure-670375,3.5,float,19.02,,119.3
2022-08-13T20:52:00,St. Mary's Bay-Centreville,,44.536239,-66.00172,2022-06-07,2022-08-22,aquaMeasure-670375,3.5,float,19.0,,119.5
2022-08-13T21:02:00,St. Mary's Bay-Centreville,,44.536239,-66.00172,2022-06-07,2022-08-22,aquaMeasure-670375,3.5,float,18.97,,119.8
2022-08-13T21:12:00,St. Mary's Bay-Centreville,,44.536239,-66.00172,2022-06-07,2022-08-22,aquaMeasure-670375,3.5,float,18.97,,118.0
2022-08-13T21:22:00,St. Mary's Bay-Centreville,,44.536239,-66.00172,2022-06-07,2022-08-22,aquaMeasure-670375,3.5,float,19.0,,119.7
2022-08-13T21:32:00,St. Mary's Bay-Centreville,,44.536239,-66.00172,2022-06-07,2022-08-22,aquaMeasure-670375,3.5,float,18.95,,120.9
2022-08-13T21:42:00,St. Mary's Bay-Centreville,,44.536239,-66.00172,2022-06-07,2022-08-22,aquaMeasure-670375,3.5,float,18.95,,121.3
2022-08-13T21:52:00,St. Mary's Bay-Centreville,,44.536239,-66.00172,2022-06-07,2022-08-22,aquaMeasure-670375,3.5,float,18.95,,121.0
2022-08-13T22:02:00,St. Mary's Bay-Centreville,,44.536239,-66.00172,2022-06-07,2022-08-22,aquaMeasure-670375,3.5,float,18.93,,121.1
2022-08-13T22:12:00,St. Mary's Bay-Centreville,,44.536239,-66.00172,2022-06-07,2022-08-22,aquaMeasure-670375,3.5,float,18.77,,117.3
2022-08-13T22:22:00,St. Mary's Bay-Centreville,,44.536239,-66.00172,2022-06-07,2022-08-22,aquaMeasure-670375,3.5,float,18.7,,116.8
2022-08-13T22:32:00,St. Mary's Bay-Centreville,,44.536239,-66.00172,2022-06-07,2022-08-22,aquaMeasure-670375,3.5,float,18.68,,117.8
2022-08-13T22:42:00,St. Mary's Bay-Centreville,,44.536239,-66.00172,2022-06-07,2022-08-22,aquaMeasure-670375,3.5,float,18.64,,117.2
2022-08-13T22:52:00,St. Mary's Bay-Centreville,,44.536239,-66.00172,2022-06-07,2022-08-22,aquaMeasure-670375,3.5,float,18.35,,116.9
2022-08-13T23:02:00,St. Mary's Bay-Centreville,,44.536239,-66.00172,2022-06-07,2022-08-22,aquaMeasure-670375,3.5,float,18.64,,117.5
2022-08-13T23:12:00,St. Mary's Bay-Centreville,,44.536239,-66.00172,2022-06-07,2022-08-22,aquaMeasure-670375,3.5,float,18.48,,116.9
2022-08-13T23:22:00,St. Mary's Bay-Centreville,,44.536239,-66.00172,2022-06-07,2022-08-22,aquaMeasure-670375,3.5,float,18.21,,113.8
2022-08-13T23:32:00,St. Mary's Bay-Centreville,,44.536239,-66.00172,2022-06-07,2022-08-22,aquaMeasure-670375,3.5,float,18.19,,116.2
2022-08-13T23:42:00,St. Mary's Bay-Centreville,,44.536239,-66.00172,2022-06-07,2022-08-22,aquaMeasure-670375,3.5,float,18.28,,115.9
2022-08-13T23:52:00,St. Mary's Bay-Centreville,,44.536239,-66.00172,2022-06-07,2022-08-22,aquaMeasure-670375,3.5,float,18.32,,115.0
